Regional Weather Roundup
Issued by NWS

Home | Current Version | Previous Version | Graphics & Text | Print | Product List | Glossary On
Versions: 1 2 3 4 5 6 7 8 9 10 11 12 13 14 15 16 17 18 19 20 21 22 23 24 25 26 27 28 29 30 31 32 33 34 35 36 37 38 39 40 41 42 43 44 45 46 47 48 49 50
000
ASUS43 KMPX 290201
RWRMN
WEATHER ROUNDUP FOR MINNESOTA
NATIONAL WEATHER SERVICE TWIN CITIES/CHANHASSEN MN
900 PM CDT FRI APR 28 2017


NOTE: "FAIR" INDICATES FEW OR NO CLOUDS BELOW 12,000 FEET WITH NO
SIGNIFICANT WEATHER AND/OR OBSTRUCTIONS TO VISIBILITY. N/A MEANS
CURRENT SKY AND/OR WEATHER CONDITIONS ARE NOT AVAILABLE.

MNZ060>063-068>070-290300-
   Twin Cities Metro

CITY           SKY/WX    TMP DP  RH WIND       PRES   REMARKS
TWIN CITIES    MOCLDY    47  27  45 N3        30.07R
ST PAUL        PTCLDY    46  29  51 CALM      30.08R
CRYSTAL        PTCLDY    45  27  49 CALM      30.05R
LAKEVILLE      PTCLDY    45  30  57 N5        30.06R
EDEN PRAIRIE   MOCLDY    47  26  44 NE3       30.06R
SOUTH ST PAUL  CLOUDY    47  28  46 CALM      30.07R
LAKE ELMO      FAIR      43  32  65 CALM      30.07R
$$
MNZ001>005-007-008-013>017-022>024-027-028-290300-
   Northwest Minnesota

CITY           SKY/WX    TMP DP  RH WIND       PRES   REMARKS
BEMIDJI        CLEAR     41  15  34 N3        30.09R
HALLOCK        CLEAR     45  16  31 N5        30.11R
ROSEAU         CLEAR     39  19  45 NW6       30.10R
WARROAD        CLEAR     39  23  52 CALM      30.09R
THIEF RVR FALL CLEAR     44  17  33 CALM      30.12R
CROOKSTON      CLEAR     45  28  53 CALM      30.12R
FOSSTON        CLEAR     36  21  55 CALM      30.11R
DETROIT LAKES  CLOUDY    43  21  42 N3        30.11R
MOORHEAD       CLEAR     45  25  45 N7        30.12R
PARK RAPIDS    CLOUDY    39  19  44 NW8       30.08R
MAHNOMEN       FAIR      41  27  57 CALM      30.11R
$$
MNZ006-009>011-018-025>026-290300-
   North Central Minnesota

CITY           SKY/WX    TMP DP  RH WIND       PRES   REMARKS
BAUDETTE       CLEAR     37  20  50 CALM      30.08R
FLAG ISLAND    CLEAR     39  28  65 S3        30.07R
INTL FALLS     CLEAR     32  22  66 CALM      30.07R
WASKISH        CLEAR     39  25  56 CALM      30.10R
BIG FORK       CLEAR     34  21  60 CALM      30.08R
LONGVILLE      PTCLDY    43  21  42 CALM      30.08R
GRAND RAPIDS   CLEAR     41  21  44 N3        30.10R
CRANE LAKE     CLEAR     30  21  69 CALM      30.09R
ORR            CLEAR     32  18  55 CALM      30.06R
COOK           CLEAR     34  23  64 CALM      30.08R
WALKER         FAIR      42  18  37 N3        30.09R
$$
MNZ012-019>021-037-290300-
   Northeast Minnesota

CITY           SKY/WX    TMP DP  RH WIND       PRES   REMARKS
DULUTH         PTCLDY    39  26  59 N6        30.05R
ELY            CLEAR     32  25  74 CALM      30.06R
HIBBING        CLEAR     32  23  69 N3        30.07R
EVELETH        CLEAR     37  17  44 CALM      30.09R
DULUTH HARBOR  CLEAR     43  34  70 N10       30.08R
TWO HARBORS    CLEAR     39  28  65 N3        30.05R
SILVER BAY     CLEAR     36  27  69 CALM      30.05R
GRAND MARAIS     N/A     39  27  62 VRB5      30.05R
G MARAIS ARPRT CLOUDY    30  23  74 CALM      30.03R
$$
MNZ029>031-032-039>041-046>048-054>057-064-290300-
   West Central Minnesota

CITY           SKY/WX    TMP DP  RH WIND       PRES   REMARKS
FERGUS FALLS   CLEAR     43  25  49 N6        30.10R
WHEATON        CLOUDY    45  23  42 N5        30.13R
MORRIS         PTCLDY    45  25  45 N10       30.08R
ALEXANDRIA     CLOUDY    44  22  41 NW9       30.09R
ELBOW LAKE     FAIR      43  25  49 N5        30.10R
WADENA         CLEAR     43  21  42 N5        30.08R
GLENWOOD       CLOUDY    45  23  42 NW8       30.09R
BENSON         PTCLDY    46  14  27 NE9       30.10R
ORTONVILLE     CLOUDY    45  23  42 N15       30.09R
MADISON        CLOUDY    48  27  43 N10       30.08R
WILLMAR        FAIR      45  28  53 NW7       30.08R
$$
MNZ033>034-036-042>043-049>051-058-059-290300-
   Central Minnesota

CITY           SKY/WX    TMP DP  RH WIND       PRES   REMARKS
ST CLOUD       MOCLDY    43  26  51 N6        30.06R
SAUK CENTRE    FAIR      45  19  35 NW8       30.07R
PAYNESVILLE    MOCLDY    45  26  46 NW5       30.07R
AITKIN         PTCLDY    46  21  36 NW3       30.05R
PINE RIVER     CLOUDY    45  21  39 N5        30.11R
BRAINERD       CLOUDY    42  19  39 N7        30.07R
STAPLES        CLEAR     39  19  45 N5        30.08R
LONG PRAIRIE   FAIR      41  21  45 W5        30.08R
LITTLE FALLS   PTCLDY    45  18  33 CALM      30.08R
LITCHFIELD     MOCLDY    46  27  46 NW5       30.06R
BUFFALO        CLOUDY    46  24  41 CALM      30.07R
MAPLE LAKE     PTCLDY    44  31  59 CALM      30.07R
HUTCHINSON     CLEAR     46  28  51 CALM      30.07R
$$
MNZ037-044-045-052-053-290300-
   East Central Minnesota

CITY           SKY/WX    TMP DP  RH WIND       PRES   REMARKS
PRINCETON      CLOUDY    45  27  49 CALM      30.06R
MORA           PTCLDY    45  27  49 NW6       30.05R
CAMBRIDGE      CLOUDY    45  30  57 CALM      30.04R
RUSH CITY      PTCLDY    42  28  58 CALM      30.05R
MOOSE LAKE     CLOUDY    43  25  49 N7        30.04R
HINCKLEY       FAIR      45  27  49 NW5       30.04R
CLOQUET        PTCLDY    39  21  48 N7        30.06R
MCGREGOR       PTCLDY    43  28  56 N10       30.06R
$$
MNZ071>073-080-081-089-090-097-098-290300-
   Southwest Minnesota

CITY           SKY/WX    TMP DP  RH WIND       PRES   REMARKS
MONTEVIDEO     PTCLDY    43  25  49 NE8       30.08R
GRANITE FALLS  PTCLDY    45  26  47 N7        30.07S
CANBY          MOCLDY    46  24  41 N10       30.07S
MARSHALL       PTCLDY    43  22  43 N8        30.07R
REDWOOD FALLS  PTCLDY    47  26  44 N7        30.04R
OLIVIA         PTCLDY    45  28  53 N8        30.05R
PIPESTONE      CLEAR     43  21  42 NE5       30.06R
WINDOM         CLEAR     43  28  56 N5        30.06R
WORTHINGTON    CLEAR     41  29  62 N8        30.06R
JACKSON        CLEAR     37  32  81 CALM      30.05R
TRACY          CLEAR     41  30  64 N8        30.05R
SLAYTON        CLEAR     42  28  57 N7        30.03R
$$
MNZ065>067-074>077-082>085-091>093-290300-
   South Central Minnesota

CITY           SKY/WX    TMP DP  RH WIND       PRES   REMARKS
MANKATO        CLOUDY    44  32  62 N7        30.05R
NEW ULM        CLOUDY    46  28  49 N6        30.04S
ST JAMES       PTCLDY    43  34  70 CALM      30.06R
FAIRMONT       CLEAR     43  33  68 N7        30.05R
GLENCOE        PTCLDY    45  34  65 CALM      30.06R
FARIBAULT      MOCLDY    45  34  65 N5        30.05R
OWATONNA       CLOUDY    43  32  65 N3        30.04R
WASECA         CLOUDY    41  32  70 N5        30.06R
ALBERT LEA     CLOUDY    41  32  70 NE3       30.03R
$$
MNZ078>079-086>088-094>096-290300-
   Southeast Minnesota

CITY           SKY/WX    TMP DP  RH WIND       PRES   REMARKS
ROCHESTER      CLOUDY    42  33  70 N5        30.04R
RED WING       CLOUDY    43  30  61 CALM      30.06R
STANTON        PTCLDY    44  33  65 CALM      30.04R
DODGE CENTER   CLOUDY    43  34  70 N3        30.04R
WINONA         CLOUDY    46  34  61 CALM      30.05R
AUSTIN         CLOUDY    43  34  70 NE3       30.03R
PRESTON        CLOUDY    42  33  70 N3        30.04R
$$
ABBREVIATIONS USED IN REMARKS
   TC - TEMPERATURES IN CELSIUS
  WCI - WIND CHILL INDEX
   HX - HEAT INDEX
  VSB - VISIBILITY
$$




USA.gov is the U.S. government's official web portal to all federal, state and local government web resources and services.